Date String (YYYY-MM-DD hh:mm:ss) UTC,Instrument flags,Ambient pressure (hPa),Sample flow (lpm),Bypass flow (lpm),Sample temperature (°C),Ambient temperature (°C),ASC tube jacket temperature (°C),LED temperature (°C),Box temperature (°C),Sample RH (%),Span deviation,Mass concentration (μg/m³),Mass concentration (μg/m³),Mass concentration (μg/m³)
DateTimeUTC,F1_M11,P_M11,Q1_M11,Q2_M11,T1_M11,T2_M11,T3_M11,T4_M11,T5_M11,U1_M11,ZSPAN_M11,X0_M11,X2_M11,X1_M11
2021-12-16 14:00:00,,0821.5,4.99,0.00,22.1,21.5,00.0,31.2,23.8,07.3,0000.0,0001.81,0000.42,0000.23
2021-12-16 14:01:00,,0821.5,5.01,0.00,22.1,21.5,00.0,31.2,23.8,07.2,0000.0,0001.75,0000.39,0000.22
2021-12-16 14:02:00,,0821.5,4.99,0.00,22.1,21.5,00.0,31.2,23.8,07.2,0000.0,0001.47,0000.39,0000.22
2021-12-16 14:03:00,,0821.5,4.99,0.00,22.1,21.4,00.0,31.2,23.8,07.3,0000.0,0001.42,0000.37,0000.22
2021-12-16 14:04:00,,0821.5,5.00,0.00,22.1,21.4,00.0,31.1,23.8,07.3,0000.0,0000.72,0000.36,0000.21
2021-12-16 14:05:00,,0821.5,5.00,0.00,22.1,21.4,00.0,31.1,23.8,07.3,0000.0,0000.79,0000.37,0000.22
2021-12-16 14:06:00,,0821.5,4.99,0.00,22.1,21.4,00.0,31.1,23.7,07.2,0000.0,0000.76,0000.38,0000.23
2021-12-16 14:07:00,,0821.5,5.01,0.00,22.1,21.4,00.0,31.1,23.8,07.3,0000.0,0000.74,0000.38,0000.24
2021-12-16 14:08:00,,0821.5,4.99,0.00,22.1,21.8,00.0,31.1,23.8,07.3,0000.0,0000.74,0000.38,0000.24
2021-12-16 14:09:00,,0821.5,5.00,0.00,22.2,22.6,00.0,31.2,24.1,07.3,0000.0,0000.84,0000.41,0000.24
2021-12-16 14:10:00,,0821.6,4.99,0.00,22.4,23.3,00.0,31.2,24.4,07.3,0000.0,0000.97,0000.41,0000.25
2021-12-16 14:11:00,,0821.5,5.00,0.00,22.5,23.2,00.0,31.2,24.5,07.3,0000.0,0001.38,0000.40,0000.24
2021-12-16 14:12:00,,0821.4,5.00,0.00,22.5,22.9,00.0,31.3,24.4,07.3,0000.0,0001.29,0000.36,0000.23
2021-12-16 14:13:00,,0821.5,5.00,0.00,22.5,22.7,00.0,31.3,24.3,07.3,0000.0,0001.39,0000.36,0000.23
2021-12-16 14:14:00,,0821.4,4.99,0.00,22.5,22.5,00.0,31.3,24.2,07.3,0000.0,0001.45,0000.37,0000.23
2021-12-16 14:15:00,,0821.4,5.01,0.00,22.4,22.2,00.0,31.3,24.1,07.2,0000.0,0001.46,0000.37,0000.23
2021-12-16 14:16:00,,0821.4,4.99,0.00,22.4,22.1,00.0,31.3,24.0,07.2,0000.0,0001.53,0000.36,0000.24
2021-12-16 14:17:00,,0821.4,5.00,0.00,22.3,21.9,00.0,31.3,24.0,07.3,0000.0,0001.55,0000.37,0000.25
2021-12-16 14:18:00,,0821.4,4.99,0.00,22.3,21.9,00.0,31.3,24.0,07.3,0000.0,0001.56,0000.37,0000.25
2021-12-16 14:19:00,,0821.5,5.00,0.00,22.3,21.8,00.0,31.3,23.9,07.3,0000.0,0001.58,0000.38,0000.26
2021-12-16 14:20:00,,0821.4,5.00,0.00,22.2,21.6,00.0,31.3,23.8,07.4,0000.0,0001.59,0000.39,0000.26
2021-12-16 14:21:00,,0821.4,5.01,0.00,22.2,21.6,00.0,31.3,23.8,07.4,0000.0,0001.56,0000.43,0000.26
2021-12-16 14:22:00,,0821.4,4.98,0.00,22.2,21.5,00.0,31.3,23.8,07.4,0000.0,0001.28,0000.48,0000.27
2021-12-16 14:23:00,,0821.4,5.01,0.00,22.2,21.5,00.0,31.3,23.8,07.4,0000.0,0001.33,0000.51,0000.28
2021-12-16 14:24:00,,0821.4,5.00,0.00,22.2,21.5,00.0,31.2,23.8,07.4,0000.0,0001.26,0000.52,0000.29
2021-12-16 14:25:00,,0821.3,5.00,0.00,22.2,21.5,00.0,31.2,23.8,07.4,0000.0,0001.32,0000.55,0000.30
2021-12-16 14:26:00,,0821.4,5.00,0.00,22.1,21.4,00.0,31.2,23.7,07.4,0000.0,0001.33,0000.57,0000.32
2021-12-16 14:27:00,,0821.4,4.99,0.00,22.1,21.4,00.0,31.2,23.7,07.4,0000.0,0001.95,0000.65,0000.34
2021-12-16 14:28:00,,0821.3,5.00,0.00,22.1,21.4,00.0,31.2,23.6,07.5,0000.0,0002.84,0000.72,0000.36
2021-12-16 14:29:00,,0821.3,5.01,0.00,22.0,21.3,00.0,31.2,23.5,07.5,0000.0,0003.06,0000.80,0000.39
2021-12-16 14:30:00,,0821.4,5.00,0.00,22.0,21.2,00.0,31.1,23.5,07.6,0000.0,0003.40,0000.93,0000.45
2021-12-16 14:31:00,,0821.4,5.00,0.00,21.9,21.2,00.0,31.1,23.4,07.6,0000.0,0003.88,0001.09,0000.52
2021-12-16 14:32:00,,0821.3,4.99,0.00,22.0,21.6,00.0,31.1,23.6,07.6,0000.0,0004.40,0001.23,0000.59
2021-12-16 14:33:00,,0821.4,5.01,0.00,22.1,22.5,00.0,31.1,23.9,07.5,0000.0,0004.62,0001.32,0000.64
2021-12-16 14:34:00,,0821.4,4.99,0.00,22.3,23.3,00.0,31.2,24.3,07.4,0000.0,0005.55,0001.42,0000.67
2021-12-16 14:35:00,,0821.3,5.01,0.00,22.4,23.1,00.0,31.2,24.3,07.4,0000.0,0006.46,0001.54,0000.71
2021-12-16 14:36:00,,0821.3,5.01,0.00,22.4,22.9,00.0,31.2,24.2,07.4,0000.0,0007.16,0001.62,0000.75
2021-12-16 14:37:00,,0821.3,5.00,0.00,22.4,22.6,00.0,31.2,24.1,07.4,0000.0,0007.36,0001.67,0000.76
2021-12-16 14:38:00,,0821.3,5.00,0.00,22.3,22.4,00.0,31.2,24.1,07.4,0000.0,0007.07,0001.68,0000.78
2021-12-16 14:39:00,,0821.3,4.99,0.00,22.3,22.2,00.0,31.3,24.0,07.4,0000.0,0006.05,0001.65,0000.78
2021-12-16 14:40:00,,0821.4,5.01,0.00,22.3,22.0,00.0,31.3,23.9,07.4,0000.0,0006.08,0001.63,0000.77
2021-12-16 14:41:00,,0821.3,4.99,0.00,22.2,21.9,00.0,31.2,23.9,07.4,0000.0,0006.88,0001.63,0000.76
2021-12-16 14:42:00,,0821.3,5.00,0.00,22.2,21.8,00.0,31.2,23.8,07.5,0000.0,0007.38,0001.62,0000.74
2021-12-16 14:43:00,,0821.3,5.02,0.00,22.2,21.7,00.0,31.2,23.8,07.5,0000.0,0007.24,0001.59,0000.72
2021-12-16 14:44:00,,0821.3,5.00,0.00,22.2,21.6,00.0,31.2,23.8,07.5,0000.0,0007.13,0001.57,0000.72
2021-12-16 14:45:00,,0821.2,5.00,0.00,22.2,21.6,00.0,31.2,23.8,07.5,0000.0,0006.60,0001.57,0000.74
2021-12-16 14:46:00,,0821.3,5.01,0.00,22.1,21.5,00.0,31.2,23.8,07.5,0000.0,0005.83,0001.57,0000.75
2021-12-16 14:47:00,,0821.2,5.01,0.00,22.1,21.5,00.0,31.2,23.8,07.5,0000.0,0005.36,0001.60,0000.76
2021-12-16 14:48:00,,0821.2,5.00,0.00,22.1,21.5,00.0,31.2,23.8,07.5,0000.0,0005.33,0001.64,0000.79
2021-12-16 14:49:00,,0821.1,5.00,0.00,22.1,21.5,00.0,31.2,23.8,07.5,0000.0,0005.39,0001.71,0000.81
2021-12-16 14:50:00,,0821.2,5.00,0.00,22.1,21.5,00.0,31.2,23.7,07.5,0000.0,0006.61,0001.73,0000.83
2021-12-16 14:51:00,,0821.2,5.00,0.00,22.1,21.4,00.0,31.2,23.7,07.4,0000.0,0006.63,0001.77,0000.84
2021-12-16 14:52:00,,0821.2,5.02,0.00,22.1,21.4,00.0,31.1,23.7,07.4,0000.0,0006.59,0001.73,0000.84
2021-12-16 14:53:00,,0821.3,5.00,0.00,22.1,21.4,00.0,31.1,23.7,07.5,0000.0,0007.34,0001.63,0000.83
2021-12-16 14:54:00,,0821.3,5.00,0.00,22.1,21.4,00.0,31.1,23.8,07.5,0000.0,0007.49,0001.60,0000.83
2021-12-16 14:55:00,,0821.2,4.99,0.00,22.1,21.4,00.0,31.1,23.8,07.5,0000.0,0007.90,0001.67,0000.83
2021-12-16 14:56:00,,0821.2,4.99,0.00,22.1,21.6,00.0,31.1,23.8,07.5,0000.0,0008.43,0001.72,0000.83
2021-12-16 14:57:00,,0821.2,5.01,0.00,22.2,22.3,00.0,31.2,24.0,07.4,0000.0,0008.41,0001.72,0000.83
2021-12-16 14:58:00,,0821.1,4.99,0.00,22.3,23.1,00.0,31.2,24.3,07.3,0000.0,0008.35,0001.66,0000.82
2021-12-16 14:59:00,,0821.2,5.00,0.00,22.4,23.1,00.0,31.2,24.4,07.3,0000.0,0008.60,0001.59,0000.80
